Location: Gourgois
(45.4054°N, 4.2000°E)
Time: 05:59:45
(UTC+00:00)

Daily predictions for brighter satellites

Satellite Brightness Start Highest point End
(mag) Time Altitude Azimuth Time Altitude Azimuth Time Altitude Azimuth
Cosmos 2278 Rocket 4.3 00:51:01 23° NNE 00:51:01 23° NNE 00:53:03 10° NNE
SL-16 R/B 4.0 00:53:22 33° N 00:53:22 33° N 00:56:49 10° N
CZ-2D R/B 4.2 01:06:28 10° NNE 01:08:34 23° NE 01:08:34 23° NE
ATLAS 5 CENTAUR R/B 4.4 01:18:57 17° NNE 01:18:57 17° NNE 01:20:21 10° NNE
ATLAS 3B R/B 4.4 01:19:23 22° E 01:19:23 22° E 01:23:21 10° ENE
ADEOS II 3.3 01:52:28 10° NNE 01:56:26 38° ENE 01:56:26 38° ENE
CENTAUR R/B 3.4 01:59:00 38° ESE 01:59:00 38° ESE 02:04:55 10° NE
Cosmos 2369 Rocket 3.0 02:07:32 46° E 02:07:32 46° E 02:12:20 10° NE
Lacrosse 5 3.7 02:08:52 23° N 02:10:05 26° NNE 02:14:18 10° ENE
Resurs 1-4 Rocket 3.5 02:07:20 10° N 02:10:11 31° NNW 02:10:11 31° NNW
Cosmos 540 Rocket 4.5 02:19:12 40° N 02:19:12 40° N 02:22:35 10° NNE
USA 238 DEB 3.7 02:21:37 69° NW 02:21:37 69° NW 02:28:27 10° NE
USA 238 3.7 02:21:42 69° NW 02:21:42 69° NW 02:28:34 10° NE
Atlas Centaur 2 4.4 02:29:29 17° SSE 02:29:29 17° SSE 02:31:49 10° SE
Cosmos 2278 Rocket 4.2 02:32:51 15° NW 02:32:51 15° NW 02:35:50 10° N
SL-16 R/B 4.4 02:38:28 16° NW 02:38:28 16° NW 02:39:59 10° NW
ARIANE 5 R/B 2.8 02:32:42 10° NNE 02:36:58 62° N 02:36:58 62° N
SL-4 R/B 4.2 02:41:21 18° E 02:41:21 18° E 02:42:26 10° E
SME Rocket 4.4 02:35:11 10° N 02:41:10 44° NW 02:41:10 44° NW
Cosmos 1943 Rocket 2.1 02:49:36 73° NW 02:49:36 73° NW 02:55:03 10° NNE
Unknown 4.5 02:50:43 48° ENE 02:50:43 48° ENE 02:53:47 10° ENE
Unknown 4.5 02:51:39 49° ENE 02:51:39 49° ENE 02:54:45 10° ENE
CZ-2D R/B 3.7 02:47:07 10° N 02:49:54 22° NW 02:49:54 22° NW
Unknown 4.3 02:53:53 52° ENE 02:53:53 52° ENE 02:57:05 10° ENE
Nadezhda 4 Rocket 3.8 02:52:13 67° SSW 02:53:03 80° W 02:59:13 10° N
Unknown 4.3 02:55:26 54° ENE 02:55:26 54° ENE 02:58:41 10° ENE
Unknown 4.2 02:55:59 54° ENE 02:55:59 54° ENE 02:59:16 10° ENE
Cosmos 2344 3.6 02:54:20 51° WSW 02:56:19 69° NW 03:04:40 10° NE
Unknown 4.1 02:58:32 58° ENE 02:58:32 58° ENE 03:01:55 10° ENE
Cosmos 1782 3.9 03:01:20 37° N 03:01:20 37° N 03:03:50 10° N
Unknown 4.0 03:01:48 62° NE 03:01:48 62° NE 03:05:19 10° ENE
ATLAS 5 CENTAUR R/B 4.2 03:00:29 11° NW 03:02:07 13° NNW 03:04:19 10° NNE
Unknown 3.9 03:03:22 64° NE 03:03:22 64° NE 03:06:57 10° ENE
Unknown 3.9 03:04:59 66° NE 03:04:59 66° NE 03:08:38 10° ENE
NOSS 3-2 (A) 3.9 03:04:27 42° WNW 03:05:29 45° NW 03:11:54 10° NNE
Unknown 3.8 03:06:36 68° NNE 03:06:36 68° NNE 03:10:19 10° ENE
ATLAS 3B R/B 2.5 03:06:39 51° SW 03:08:26 78° NW 03:15:04 10° NE
Lacrosse 5 rocket 3.4 03:11:37 19° SSE 03:11:37 19° SSE 03:12:56 10° SSE
NOSS 3-2 (C) 3.5 03:08:07 50° W 03:09:18 59° NW 03:15:55 10° NE
Unknown 3.7 03:09:48 69° NNE 03:09:48 69° NNE 03:13:39 10° NE
Unknown 3.7 03:11:27 69° N 03:11:27 69° N 03:15:20 10° NE
Cosmos 1400 Rocket 2.8 03:11:55 71° E 03:11:55 71° E 03:15:47 10° NNE
Unknown 3.7 03:12:58 70° N 03:12:58 70° N 03:16:57 10° NE
Unknown 3.6 03:14:32 70° NNW 03:14:32 70° NNW 03:18:34 10° NE
Unknown 3.8 03:16:03 57° NNW 03:16:03 57° NNW 03:19:57 10° NE
Unknown 3.7 03:16:25 68° NNW 03:16:25 68° NNW 03:20:32 10° NE
Spot 2 4.4 03:12:45 10° NNE 03:17:20 67° ESE 03:18:57 37° S
Unknown 3.6 03:17:37 70° NNW 03:17:38 70° NNW 03:21:47 10° NE
Cosmos 2263 4.1 03:17:42 52° WSW 03:18:56 68° WNW 03:24:33 10° NNE
Aureole 2 Rocket 4.1 03:19:49 22° ESE 03:19:49 22° ESE 03:21:57 10° NE
CZ-2D R/B 4.3 03:16:19 10° N 03:19:06 35° NNW 03:19:06 35° NNW
Unknown 3.6 03:20:47 67° NW 03:20:57 67° NNW 03:25:05 10° NE
Unknown 3.6 03:22:24 64° NW 03:22:37 66° NNW 03:26:45 10° NE
IDEFIX/ARIANE 42P 3.1 03:17:26 10° NNE 03:22:39 57° E 03:27:33 11° S
Cosmos 1340 4.4 03:20:28 10° N 03:23:58 34° ENE 03:27:26 10° SE
Unknown 3.7 03:24:10 58° NW 03:24:29 60° NNW 03:28:35 10° NE
H-2A R/B 3.5 03:21:56 10° NNE 03:25:32 39° E 03:28:28 14° SSE
Unknown 3.7 03:25:26 56° NW 03:25:45 58° NNW 03:29:48 10° NE
Unknown 3.7 03:25:36 60° WNW 03:25:57 63° NNW 03:30:04 10° NE
Cosmos 1862 Rocket 3.8 03:24:47 25° S 03:27:17 70° E 03:31:46 10° NNE
Unknown 3.7 03:27:10 57° WNW 03:27:36 61° NNW 03:31:43 10° NE
Iridium 4 Rocket 2.9 03:26:12 38° S 03:27:53 86° W 03:32:09 10° N
Meteor 1-5 Rocket 4.3 03:22:38 10° N 03:28:06 77° ENE 03:33:44 10° SSE
USA 81 4.3 03:23:43 10° S 03:28:55 71° E 03:34:11 10° N
Cosmos 2084 Rocket 3.9 03:24:33 10° NW 03:28:57 64° NE 03:33:16 10° SE
Unknown 3.8 03:30:23 53° WNW 03:30:56 59° NNW 03:35:03 10° NE
Cosmos 2026 Rocket 4.0 03:26:46 16° S 03:31:58 88° W 03:38:23 10° N
Unknown 3.8 03:31:59 51° WNW 03:32:37 58° NNW 03:36:43 10° NE
USA 267 4.4 03:26:42 10° E 03:32:40 39° NNE 03:38:38 10° NW
Unknown 3.9 03:33:35 49° WNW 03:34:17 57° NNW 03:38:23 10° NE
CZ-2C R/B 3.6 03:32:10 10° N 03:35:23 35° NW 03:35:23 35° NW
Unknown 3.9 03:35:11 47° WNW 03:35:57 55° NNW 03:40:02 10° NE
Cosmos 1536 3.8 03:32:51 10° N 03:36:43 48° ENE 03:40:34 10° SSE
ADEOS II 3.0 03:32:33 10° N 03:36:59 28° WNW 03:37:22 28° WNW
Timation 2 Rocket 3.8 03:30:59 10° NNW 03:37:04 87° WSW 03:43:02 10° SSE
Cosmos 1346 Rocket 3.6 03:33:20 10° N 03:37:23 55° ENE 03:41:24 10° SSE
Unknown 4.0 03:38:23 43° WNW 03:39:18 53° NNW 03:43:22 10° NE
Unknown 4.1 03:40:15 38° WNW 03:41:17 48° NNW 03:45:18 10° NE
Meteor 2-9 4.5 03:36:56 10° NNW 03:42:20 71° W 03:47:40 10° S
Unknown 4.1 03:41:48 37° WNW 03:42:54 48° NNW 03:46:56 10° NE
Unknown 4.1 03:41:58 39° WNW 03:43:03 50° NNW 03:47:06 10° NE
Cosmos 1656 Rocket 3.7 03:41:58 30° SW 03:44:52 70° WNW 03:50:32 10° NNE
Unknown 4.1 03:44:45 36° WNW 03:45:57 49° NNW 03:50:00 10° NE
CENTAUR R/B 3.0 03:46:12 29° W 03:49:13 50° NW 03:56:11 10° NNE
Unknown 4.2 03:47:57 34° WNW 03:49:19 47° NNW 03:53:20 10° NE
MSX 4.2 03:44:02 10° NNE 03:49:47 67° ESE 03:55:29 10° S
CZ-2C R/B 3.6 03:46:07 10° NNE 03:50:48 43° E 03:55:37 10° S
Unknown 4.2 03:49:33 32° WNW 03:50:58 46° NNW 03:55:00 10° NE
Cosmos 2369 Rocket 3.2 03:49:21 26° W 03:51:08 31° NW 03:56:09 10° N
Unknown 4.2 03:51:09 31° WNW 03:52:39 46° NNW 03:56:40 10° NE
Cosmos 1655 Rocket 4.3 03:47:24 10° S 03:53:34 71° E 03:59:50 10° NNE
Lacrosse 5 2.2 03:48:47 10° NW 03:53:50 67° NE 03:58:52 10° ESE
Unknown 4.2 03:52:46 30° WNW 03:54:20 45° NNW 03:58:20 10° NE
Cosmos 2297 Rocket 4.3 03:50:34 10° N 03:55:24 28° NE 04:00:13 10° ESE
Cosmos 1908 Rocket 3.7 03:52:43 10° N 03:57:04 74° E 04:01:24 10° SSE
Cosmos 1538 Rocket 4.2 03:52:23 10° SSW 03:57:32 73° ESE 04:02:41 10° NNE
CZ-4B R/B 4.4 03:53:30 10° NNE 03:57:50 43° E 04:02:05 10° S
PSLV R/B 4.0 03:53:49 10° S 03:57:51 52° W 04:01:53 10° NNW
Cosmos 44 3.7 03:55:43 29° WSW 03:57:52 47° NW 04:02:29 10° NNE
S3M 4.1 03:53:33 10° N 03:59:46 80° E 04:06:01 10° S
Cosmos 1500 3.0 03:56:57 10° NNW 04:00:40 63° W 04:04:22 10° S
Unknown 4.4 03:59:07 26° WNW 04:00:59 42° NNW 04:04:57 10° NE
Unknown 4.4 04:00:44 25° WNW 04:02:40 41° NNW 04:06:37 10° NE
PSLV R/B 3.7 03:59:29 10° N 04:03:47 55° WNW 04:07:00 17° SW
Unknown 4.4 04:02:19 24° WNW 04:04:20 41° NNW 04:08:17 10° NE
Cosmos 1733 Rocket 3.6 04:01:49 10° NNW 04:05:53 35° W 04:09:55 10° SSW
Unknown 4.4 04:03:54 23° WNW 04:06:00 40° NNW 04:09:56 10° NE
Unknown 4.5 04:05:32 22° WNW 04:07:42 40° NNW 04:11:37 10° NE
SeaSat 1 2.4 04:04:37 10° NNE 04:09:35 77° WNW 04:14:10 12° SW
Atlas Centaur 2 4.2 04:12:06 13° SW 04:15:10 17° SSW 04:19:49 10° SSE
ARIANE 5 R/B 4.3 04:13:49 10° NNW 04:16:08 13° NW 04:17:18 12° WNW
Meteor 1-27 Rocket 3.8 04:10:44 10° SSW 04:16:32 61° WNW 04:22:16 10° N
SL-4 R/B 2.4 04:17:01 23° W 04:18:29 32° SW 04:21:46 10° SSE
ADEOS 4.0 04:15:42 10° N 04:20:36 42° WNW 04:25:28 10° SW
COSMOS 2441 4.3 04:17:58 10° N 04:22:50 70° WNW 04:27:41 10° SSW
CZ-4B R/B 3.7 04:21:34 10° NNE 04:25:15 78° ESE 04:28:54 10° S
Cosmos 1812 3.4 04:23:31 14° SW 04:26:23 33° WNW 04:29:55 10° N
ATLAS CENTAUR R/B 3.8 04:23:49 10° NNW 04:27:33 24° NE 04:31:03 10° E
PAYLOAD A 3.8 04:23:34 10° N 04:28:19 69° WNW 04:32:58 10° SSW
Cosmos 1743 3.9 04:24:33 10° N 04:28:21 47° ENE 04:32:06 10° SSE
Meteor 1-11 Rocket 4.2 04:26:04 10° NNW 04:31:08 36° W 04:36:08 10° SSW
Cosmos 1315 Rocket 3.5 04:27:41 10° SW 04:31:32 37° WNW 04:35:24 10° N
Cosmos 1943 Rocket 4.0 04:31:09 10° WNW 04:34:15 15° NW 04:37:28 10° N
BREEZE-M DEB (TANK) 3.0 04:29:35 11° W 04:38:29 82° N 04:41:35 10° E
Cosmos 2266 Rocket 3.9 04:33:03 10° S 04:39:08 82° W 04:45:13 10° N
Cosmos 1782 Rocket 3.5 04:35:33 10° NNW 04:39:54 69° W 04:44:16 10° S
USA 215 3.4 04:33:57 10° NE 04:40:31 79° SE 04:47:04 10° SW
Shenzhou-11 Module 4.5 04:39:33 10° S 04:40:52 13° SSE 04:42:10 10° ESE
Cosmos 883 Rocket 4.5 04:34:43 10° N 04:40:52 85° W 04:46:59 10° S
SKYMED 2 4.2 04:37:09 10° SSE 04:41:25 62° ENE 04:45:43 10° N
Unknown 3.2 04:45:35 10° NW 04:48:25 58° NNE 04:51:15 10° ESE
ALOS 4.1 04:44:21 10° NNE 04:48:40 35° E 04:52:56 10° SSE
Meteor PRIRODA 3.6 04:48:25 10° N 04:52:06 73° WNW 04:55:47 10° SSW
Cosmos 1703 Rocket 4.0 04:48:58 10° SSW 04:53:10 40° WNW 04:57:21 10° N
Aureole 2 Rocket 3.9 04:52:32 10° W 04:53:57 13° WNW 04:55:21 10° NNW
Cosmos 2292 Rocket 3.8 04:49:13 10° S 04:54:26 83° E 04:58:22 10° N
PSLV R/B 3.8 04:51:15 10° N 04:55:18 77° WNW 04:59:13 10° SSW
Cosmos 1666 3.2 04:51:54 10° NNW 04:55:22 35° W 04:58:49 10° SSW
Sich 1 Rocket 3.7 04:51:35 10° NNW 04:55:58 57° W 05:00:21 10° S
Meteor 1-31 Rocket 3.2 04:53:19 10° N 04:57:02 42° WNW 05:00:42 10° SW
Cosmos 1340 4.2 04:56:47 10° NW 04:59:18 17° W 05:01:49 10° SW
BREEZE-M DEB (TANK) 2.9 04:55:48 10° W 04:59:30 42° NNW 05:01:44 10° ENE
ATLAS 3B R/B 3.9 04:54:50 10° W 05:00:10 25° NNW 05:05:29 10° NNE
Okean 1 3.2 04:57:07 10° SSW 05:01:03 71° W 05:05:02 10° N
Cosmos 2221 Rocket 3.6 04:56:44 10° S 05:01:08 87° W 05:05:35 10° N
Cosmos 2112 Rocket 4.3 04:56:14 10° SSW 05:01:30 77° ESE 05:06:44 10° NNE
